Location: Gugi
(45.4667°N, 11.1000°E)
Time: 03:01:30
(UTC+00:00)

Okean-O - Pass Details

Date: 17 November 2019
Orbit: 639 x 641 km, 98.2° (Epoch: 07 December)

Event Time Altitude Azimuth Distance (km) Brightness Sun altitude
Rises 16:13:53 0° 141° (SE) 2,936 5.8 -5.6°
Reaches altitude 10° 16:16:14 10° 131° (SE) 2,031 4.9 -6.0°
Maximum altitude 16:20:11 33° 68° (ENE) 1,075 3.3 -6.7°
Drops below altitude 10° 16:24:11 10° 4° (N) 2,043 5.0 -7.3°
Sets 16:26:32 0° 355° (N) 2,957 5.9 -7.7°
